Overview Statistics Trail Chart Weather Telemetry Raw packets
 

This is the latest recevied weather packets stored in our database for station/object KF0WJA. If no packets are shown the sender has not sent any weather packets the latest 10 day(s).

<< 108 109 110 111 112 113 114 >>
Time Temp. Humidity Pressure Rain* Wind** Luminosity Snow
1787840348 25° C 69% 1022.2 hPa 0 mm - 196 W/m² -
1787840047 25° C 70% 1022.2 hPa 0 mm - 189 W/m² -
1787839742 25° C 72% 1022.3 hPa 0 mm - 177 W/m² -
1787839437 24.44° C 73% 1022.3 hPa 0 mm - 179 W/m² -
1787839137 23.89° C 75% 1022.1 hPa 0 mm - 177 W/m² -
1787838836 23.89° C 77% 1022.1 hPa 0 mm - 159 W/m² -
1787838530 23.33° C 78% 1021.8 hPa 0 mm - 145 W/m² -
1787838229 23.33° C 80% 1021.9 hPa 0 mm - 130 W/m² -
1787837929 22.78° C 80% 1021.9 hPa 0 mm - 124 W/m² -
1787837628 22.78° C 81% 1022 hPa 0 mm - 118 W/m² -
1787837322 22.78° C 82% 1022 hPa 0 mm - 111 W/m² -
1787837018 22.78° C 82% 1021.8 hPa 0 mm - 110 W/m² -
1787836718 22.78° C 82% 1021.8 hPa 0 mm - 109 W/m² -
1787836412 22.22° C 84% 1021.8 hPa 0 mm - 106 W/m² -
1787836107 21.67° C 85% 1021.8 hPa 0 mm - 95 W/m² -
1787835803 21.67° C 87% 1021.7 hPa 0 mm - 83 W/m² -
1787835502 21.11° C 88% 1021.6 hPa 0 mm - 74 W/m² -
1787835198 21.11° C 88% 1021.5 hPa 0 mm - 66 W/m² -
1787834898 20.56° C 89% 1021.7 hPa 0 mm - 57 W/m² -
1787834597 20.56° C 89% 1021.4 hPa 0 mm - 48 W/m² -
1787834292 20.56° C 89% 1021.3 hPa 0 mm - 38 W/m² -
1787833988 20.56° C 89% 1021.6 hPa 0 mm - 30 W/m² -
1787833683 20.56° C 89% 1021.5 hPa 0 mm - 26 W/m² -
1787833378 20.56° C 89% 1021.1 hPa 0 mm - 20 W/m² -
1787833074 20.56° C 89% 1021.3 hPa 0 mm - 16 W/m² -

* Rain latest hour (hover to see other rain measurements)
** Current wind speed in m/s (hover to see current wind gust speed)